EN

Hourly Weather Okmiany

Today, 18 May, Tuesday

Time Temperature Precipitation Wind Pressure Humidity
00:00 +8°C° 0 mm 4 mps 738 mmHg 90%
01:00 +7°C° 0 mm 4 mps 738 mmHg 91%
02:00 +7°C° 0 mm 4 mps 739 mmHg 91%
03:00 +7°C° 0 mm 4 mps 739 mmHg 91%
04:00 +6°C° 0 mm 4 mps 739 mmHg 91%
05:00 +7°C° 0 mm 4 mps 739 mmHg 90%
06:00 +8°C° 0 mm 4 mps 739 mmHg 89%
07:00 +9°C° 0 mm 5 mps 740 mmHg 88%
08:00 +9°C° 0.2 mm 5 mps 740 mmHg 87%
09:00 +10°C° 0.2 mm 6 mps 740 mmHg 86%
10:00 +10°C° 0.2 mm 6 mps 740 mmHg 85%
11:00 +11°C° 0.2 mm 6 mps 740 mmHg 78%
12:00 +14°C° 0.2 mm 6 mps 740 mmHg 72%
13:00 +15°C° 0.2 mm 6 mps 740 mmHg 65%
14:00 +15°C° 0.1 mm 6 mps 740 mmHg 64%
15:00 +15°C° 0.1 mm 5 mps 740 mmHg 64%
16:00 +15°C° 0.1 mm 5 mps 740 mmHg 63%
17:00 +14°C° 0.2 mm 5 mps 741 mmHg 70%
18:00 +12°C° 0.2 mm 4 mps 741 mmHg 78%
19:00 +11°C° 0.2 mm 4 mps 741 mmHg 85%
20:00 +10°C° 0 mm 4 mps 741 mmHg 88%
21:00 +9°C° 0 mm 3 mps 742 mmHg 91%
22:00 +8°C° 0 mm 3 mps 742 mmHg 95%
23:00 +7°C° 0 mm 4 mps 742 mmHg 95%

Tomorrow, 19 May, Wednesday

Time Temperature Precipitation Wind Pressure Humidity
00:00 +7°C° 0 mm 4 mps 742 mmHg 95%
01:00 +6°C° 0 mm 4 mps 742 mmHg 95%
02:00 +6°C° 0 mm 4 mps 742 mmHg 94%
03:00 +7°C° 0 mm 3 mps 742 mmHg 94%
04:00 +5°C° 0 mm 3 mps 742 mmHg 94%
05:00 +7°C° 0 mm 3 mps 743 mmHg 91%
06:00 +7°C° 0 mm 4 mps 743 mmHg 89%
07:00 +8°C° 0 mm 4 mps 743 mmHg 87%
08:00 +8°C° 0.1 mm 4 mps 743 mmHg 87%
09:00 +10°C° 0.1 mm 4 mps 743 mmHg 86%
10:00 +10°C° 0.1 mm 4 mps 744 mmHg 86%
11:00 +9°C° 0.1 mm 5 mps 744 mmHg 82%
12:00 +10°C° 0.1 mm 5 mps 744 mmHg 79%
13:00 +10°C° 0.1 mm 6 mps 744 mmHg 75%
14:00 +10°C° 0.1 mm 5 mps 744 mmHg 74%
15:00 +10°C° 0.1 mm 5 mps 744 mmHg 72%
16:00 +12°C° 0.1 mm 4 mps 744 mmHg 71%
17:00 +11°C° 0.2 mm 3 mps 744 mmHg 75%
18:00 +10°C° 0.2 mm 3 mps 744 mmHg 78%
19:00 +10°C° 0.2 mm 2 mps 744 mmHg 81%
20:00 +9°C° 0 mm 2 mps 745 mmHg 84%
21:00 +9°C° 0 mm 1 mps 745 mmHg 86%
22:00 +8°C° 0 mm 1 mps 745 mmHg 88%
23:00 +6°C° 0 mm 2 mps 745 mmHg 89%

Day after tomorrow, 20 May, Thursday

Time Temperature Precipitation Wind Pressure Humidity
00:00 +6°C° 0 mm 2 mps 745 mmHg 90%
01:00 +6°C° 0 mm 2 mps 745 mmHg 91%
02:00 +6°C° 0 mm 2 mps 745 mmHg 92%
03:00 +5°C° 0 mm 2 mps 746 mmHg 93%
04:00 +5°C° 0 mm 2 mps 746 mmHg 94%
05:00 +5°C° 0 mm 3 mps 746 mmHg 90%
06:00 +8°C° 0 mm 3 mps 746 mmHg 86%
07:00 +10°C° 0 mm 4 mps 747 mmHg 82%
08:00 +10°C° 0.2 mm 4 mps 747 mmHg 80%
09:00 +11°C° 0.2 mm 4 mps 747 mmHg 78%
10:00 +12°C° 0.2 mm 5 mps 747 mmHg 75%
11:00 +13°C° 0.1 mm 5 mps 747 mmHg 70%
12:00 +13°C° 0.1 mm 5 mps 747 mmHg 66%
13:00 +14°C° 0.1 mm 5 mps 747 mmHg 61%
14:00 +14°C° 0 mm 5 mps 747 mmHg 59%
15:00 +14°C° 0 mm 5 mps 747 mmHg 58%
16:00 +14°C° 0 mm 5 mps 747 mmHg 57%
17:00 +13°C° 0 mm 4 mps 748 mmHg 63%
18:00 +12°C° 0 mm 4 mps 748 mmHg 69%
19:00 +11°C° 0 mm 3 mps 748 mmHg 75%
20:00 +9°C° 0 mm 3 mps 748 mmHg 81%
21:00 +8°C° 0 mm 3 mps 749 mmHg 86%
22:00 +6°C° 0 mm 2 mps 749 mmHg 92%
23:00 +6°C° 0 mm 2 mps 749 mmHg 93%

21 May, Friday

Time Temperature Precipitation Wind Pressure Humidity
00:00 +6°C° 0 mm 2 mps 749 mmHg 94%
01:00 +4°C° 0 mm 3 mps 749 mmHg 95%
02:00 +5°C° 0 mm 2 mps 749 mmHg 94%
03:00 +5°C° 0 mm 2 mps 749 mmHg 94%
04:00 +5°C° 0 mm 2 mps 748 mmHg 94%
05:00 +7°C° 0 mm 3 mps 748 mmHg 88%
06:00 +8°C° 0 mm 3 mps 748 mmHg 82%
07:00 +10°C° 0 mm 3 mps 748 mmHg 77%
08:00 +12°C° 0 mm 3 mps 748 mmHg 70%
09:00 +13°C° 0 mm 4 mps 747 mmHg 63%
10:00 +15°C° 0 mm 4 mps 747 mmHg 56%
11:00 +17°C° 0 mm 4 mps 747 mmHg 52%
12:00 +17°C° 0 mm 4 mps 746 mmHg 48%
13:00 +18°C° 0 mm 3 mps 746 mmHg 44%
14:00 +18°C° 0 mm 3 mps 745 mmHg 49%
15:00 +17°C° 0 mm 3 mps 745 mmHg 54%
16:00 +17°C° 0 mm 2 mps 744 mmHg 59%
17:00 +16°C° 0.1 mm 2 mps 744 mmHg 64%
18:00 +15°C° 0.1 mm 1 mps 744 mmHg 69%
19:00 +14°C° 0.1 mm 1 mps 743 mmHg 74%
20:00 +13°C° 0 mm 1 mps 743 mmHg 76%
21:00 +12°C° 0 mm 2 mps 742 mmHg 78%
22:00 +10°C° 0 mm 3 mps 742 mmHg 81%
23:00 +10°C° 0 mm 3 mps 741 mmHg 80%

22 May, Saturday

Time Temperature Precipitation Wind Pressure Humidity
00:00 +9°C° 0 mm 3 mps 740 mmHg 79%
01:00 +9°C° 0 mm 3 mps 740 mmHg 78%
02:00 +10°C° 0 mm 3 mps 740 mmHg 75%
03:00 +10°C° 0 mm 4 mps 739 mmHg 73%
04:00 +11°C° 0 mm 4 mps 739 mmHg 70%
05:00 +11°C° 0 mm 4 mps 739 mmHg 71%
06:00 +12°C° 0 mm 5 mps 739 mmHg 72%
07:00 +13°C° 0 mm 5 mps 739 mmHg 74%
08:00 +14°C° 0.1 mm 5 mps 739 mmHg 71%
09:00 +14°C° 0.1 mm 6 mps 739 mmHg 69%
10:00 +15°C° 0.1 mm 6 mps 740 mmHg 67%
11:00 +15°C° 0.1 mm 6 mps 740 mmHg 64%
12:00 +15°C° 0.1 mm 6 mps 740 mmHg 61%
13:00 +15°C° 0.1 mm 5 mps 740 mmHg 58%
14:00 +15°C° 0 mm 5 mps 740 mmHg 57%
15:00 +14°C° 0 mm 5 mps 740 mmHg 56%
16:00 +14°C° 0 mm 5 mps 741 mmHg 55%
17:00 +13°C° 0 mm 4 mps 741 mmHg 60%
18:00 +12°C° 0 mm 3 mps 741 mmHg 65%
19:00 +11°C° 0 mm 3 mps 741 mmHg 70%
20:00 +10°C° 0 mm 3 mps 741 mmHg 72%
21:00 +9°C° 0 mm 3 mps 741 mmHg 74%
22:00 +8°C° 0 mm 3 mps 741 mmHg 77%
23:00 +8°C° 0 mm 3 mps 741 mmHg 78%

23 May, Sunday

Time Temperature Precipitation Wind Pressure Humidity
00:00 +7°C° 0 mm 3 mps 741 mmHg 79%
01:00 +7°C° 0 mm 3 mps 741 mmHg 80%
02:00 +7°C° 0 mm 3 mps 741 mmHg 80%
03:00 +7°C° 0 mm 3 mps 741 mmHg 80%
04:00 +7°C° 0 mm 3 mps 741 mmHg 79%
05:00 +9°C° 0 mm 3 mps 741 mmHg 75%
06:00 +10°C° 0 mm 4 mps 741 mmHg 70%
07:00 +12°C° 0 mm 4 mps 741 mmHg 65%
08:00 +13°C° 0.1 mm 5 mps 741 mmHg 63%
09:00 +14°C° 0.1 mm 5 mps 742 mmHg 61%
10:00 +14°C° 0.1 mm 5 mps 742 mmHg 60%
11:00 +15°C° 0.1 mm 5 mps 742 mmHg 58%
12:00 +15°C° 0.1 mm 5 mps 742 mmHg 57%
13:00 +15°C° 0.1 mm 5 mps 742 mmHg 55%
14:00 +15°C° 0 mm 5 mps 742 mmHg 56%
15:00 +15°C° 0 mm 5 mps 742 mmHg 56%
16:00 +15°C° 0 mm 5 mps 742 mmHg 57%
17:00 +14°C° 0 mm 5 mps 743 mmHg 61%
18:00 +12°C° 0 mm 4 mps 743 mmHg 66%
19:00 +11°C° 0 mm 4 mps 744 mmHg 71%
20:00 +10°C° 0 mm 3 mps 744 mmHg 76%
21:00 +9°C° 0 mm 3 mps 745 mmHg 81%
22:00 +7°C° 0 mm 3 mps 745 mmHg 86%
23:00 +7°C° 0 mm 3 mps 746 mmHg 87%
Show more

We Need Your Consent

Meteoprog and our Service Providers may store and access personal data such as cookies, device identifiers or other similar technologies on your device and process such data to personalise content and ads, as well as provide social media features and to analyse the traffic.

  • Store and/or access information on your device

    Cookies, device identifiers or other information can be stored or accessed on your device for the purposes indicated above.

  • Personalised ads and content, ad and content measurement, audience insights, and products development

    Ads and content can be personalised based on a profile. More data can be added to better personalise ads and content. Ad and content performance can be measured. Insights about the audience who saw the ads and content can be derived. Such data can be used to develop or improve user’s experience, systems and software.

By clicking ‘I Agree’ you will allow the use of indicated cookies, device identifiers, web beacons or other similar technologies. Your settings can be changed in the browser on your device.

For certain purposes, legitimate interests may be relied on, rather than consent. You can read more about this in our Privacy and Cookie Policy.